Location: Doverdale
(52.2833°N, 2.2000°W)
Time: 03:26:14
(UTC+00:00)

FALCON 9 DEB - Pass Details

Date: 29 October 2020
Orbit: 382 x 399 km, 53.0° (Epoch: 27 November)

Event Time Altitude Azimuth Distance (km) Brightness Sun altitude
Rises 18:12:23 0° 244° (WSW) 2,320 8.2 -13.9°
Reaches altitude 10° 18:14:28 10° 241° (WSW) 1,460 6.9 -14.2°
Maximum altitude 18:17:43 64° 160° (SSE) 452 3.1 -14.7°
Enters shadow 18:18:54 34° 90° (E) 685 3.5 -14.9°
